Airfield :
LOGIN :

Register | Disclaimer

   EN    FR    IT 

 










Legend :    VFR   Marginal VFR   IFR   Intensive IFR   Very Intensive IFR
Visi :
Ceiling :
>= 8 km
>= 3000ft
5 to 8 km
1000 to 3000 ft
1500m to 5 km
500 to 1000 ft
800 to 1500m
200 to 500 ft
< 800m
< 200 ft
Symbols :   Thunderstorms  Fog  Heavy snow  Heavy precipitations  Wind > 20 kt
SIGMETs :     Misc.  Thunderstorms  Icing  Turbulence  Mountain Waves  Volcanic Ashes






- Airport Elevation : 24 ft
- IATA code : SGD


EKSB - Sonderborg

CURRENT METAR :
  • 130420Z AUTO 13017KT 9999NDV BKN013/// 04/01 Q0984

EXPIRED METARs :
  • 130350Z AUTO 13016KT 9999NDV SCT015/// 04/01 Q0984
  • 130320Z AUTO 14017KT 9999NDV SCT019/// 04/01 Q0985
  • 130250Z AUTO 14016KT 9999NDV BKN020/// 04/01 Q0985
  • 130220Z AUTO 14016G26KT 9999NDV SCT021/// 04/01 Q0986
  • 130150Z AUTO 15017G27KT 9999NDV FEW017/// 04/01 Q0987

Expired Forecast.



MET'MAP, your aeronautical weather chart ! - Copyright ORBIFLY December 2007 - Disclaimer

ORBIFLY MET'MAP TEAM :

Programming & Development : Alexandra Zaïnal
Concept & original design : Baudouin d'Aumeries
Assistance for programming : Marc-Olivier Méhu
Technical & hardware support : Manuel Goepfert

Contact : metmap@orbifly.com




SOURCES & CREDITS :

   NOAA